SCP
0 0 0 0 0 0 -0 -0 -0 0 0 0 0 0 0 0 1 1 1 2 2 2 2 2 2 2 1 1 1 1 1 1 0 0 0 0 0 0 0 0 0 0 0 0
0 0 0 0 0 0 0 -0 0 0 0 0 0 0 0 0 1 1 1 1 1 2 1 1 2 1 1 1 1 1 1 1 0 0 0 0 0 0 0 0 0 0 0 0
0 0 0 0 0 0 0 0 0 0 0 0 0 0 0 0 0 1 1 1 1 1 1 1 1 1 1 1 1 1 1 1 0 0 0 0 0 0 0 0 0 0 0 0
0 0 0 0 0 0 0 0 0 0 0 0 0 0 0 0 0 0 1 1 1 1 1 1 1 1 1 1 1 1 1 0 0 0 0 0 0 0 0 0 0 0 0 0
0 0 0 0 0 0 0 0 0 0 0 0 0 0 0 0 0 0 0 1 1 1 1 1 1 1 1 1 1 1 0 0 0 0 0 0 0 0 0 0 0 0 0 0
0 0 0 0 0 0 0 0 0 0 0 0 0 0 0 0 0 0 0 1 1 1 1 1 1 1 1 1 1 0 0 0 0 0 0 0 0 0 0 0 0 0 0 0
0 0 0 0 0 0 0 0 0 0 0 0 0 0 0 0 0 0 0 0 1 1 1 1 1 0 0 0 0 0 0 0 0 0 0 0 0 0 0 0 0 0 0 0
0 0 0 0 0 0 0 0 0 0 0 0 0 0 0 0 0 0 0 0 0 1 0 0 0 0 0 0 0 0 0 0 0 0 0 0 0 0 0 0 0 0 0 0
0 0 0 0 0 0 0 0 0 0 0 0 0 0 0 0 0 0 0 0 0 0 0 0 0 0 0 0 0 0 0 0 0 0 0 0 0 0 0 0 0 0 0 0
0 0 0 0 0 0 0 0 0 0 0 0 0 0 0 0 0 0 0 0 0 0 0 0 0 0 0 0 0 0 0 0 0 0 0 0 0 0 0 0 0 0 0 0
0 0 0 0 0 0 0 0 0 0 0 0 0 0 0 0 0 0 0 0 0 0 0 0 0 0 0 0 0 0 0 0 0 0 0 0 0 0 0 0 0 0 0 0
0 0 0 0 0 0 0 0 0 0 0 0 0 0 0 0 0 0 0 0 0 0 0 0 0 0 0 0 0 0 0 0 0 0 0 0 0 0 0 0 0 0 0 0
0 0 0 0 0 0 0 0 0 0 0 0 0 0 0 0 0 0 0 0 0 0 0 0 0 0 0 0 0 0 0 0 0 0 0 0 0 0 0 0 0 0 0 0
0 0 0 0 0 0 0 0 0 0 0 0 0 0 0 0 0 0 0 0 0 0 0 0 0 0 0 0 0 0 0 0 0 0 0 0 0 0 0 0 0 0 0 0
0 0 0 0 0 0 0 0 0 0 0 0 0 0 0 0 0 0 0 0 0 0 0 0 0 0 0 0 0 0 0 0 0 0 0 0 0 0 0 0 0 0 0 0
0 0 0 0 0 0 0 0 0 0 0 0 0 0 0 1 1 1 1 1 1 1 0 0 0 0 0 0 0 0 0 0 1 0 0 0 0 0 0 0 0 0 0 0
0 0 0 0 0 0 0 0 0 0 0 0 0 0 1 1 1 1 1 1 1 1 1 0 0 0 0 0 0 1 1 1 1 0 0 0 0 0 0 0 0 0 0 0
0 0 0 0 0 0 0 0 0 0 0 0 0 1 1 1 1 1 1 1 1 1 1 0 0 0 0 0 1 1 1 1 1 0 0 0 0 0 0 0 0 0 0 0
0 0 0 0 0 0 0 0 0 0 0 0 0 1 1 1 1 1 1 1 1 1 1 1 0 0 0 1 1 1 1 1 1 0 0 0 0 0 0 0 0 0 0 0
0 0 0 0 0 0 0 0 0 0 0 0 0 0 0 1 1 1 1 1 1 1 1 1 1 0 1 1 1 1 1 1 0 0 0 0 0 0 0 0 0 0 0 0
0 0 0 0 0 0 0 0 0 0 0 0 0 0 0 0 0 0 0 0 1 1 1 1 1 0 0 1 1 1 1 1 0 0 0 0 0 0 0 0 0 0 0 0
0 0 0 0 0 0 0 0 0 0 0 0 0 0 0 0 0 0 0 0 0 0 1 1 1 0 0 1 1 1 0 0 0 0 0 0 0 0 0 0 0 0 0 0
0 0 0 0 0 0 0 0 0 0 0 0 0 0 0 0 0 0 0 0 0 0 0 0 0 0 0 0 0 0 0 0 0 0 0 0 0 0 0 0 0 0 0 0
0 0 0 0 0 0 0 0 0 0 0 0 0 0 0 0 0 0 0 0 0 0 0 0 0 0 0 0 0 0 0 0 0 0 0 0 0 0 0 0 0 0 0 0
0 0 0 0 0 0 0 0 0 0 0 0 0 0 0 0 0 0 0 0 0 0 0 0 0 0 0 0 0 0 0 0 0 0 0 0 0 0 0 0 0 0 0 0
0 0 0 0 0 0 0 0 0 0 0 0 0 0 0 0 0 0 0 0 0 0 0 0 0 0 0 0 0 0 0 0 0 0 0 0 0 0 0 0 0 0 0 0
Wind_Speed
3 3 6 8 8 8 7 8 12 14 11 3 2 3 5 5 7 9 10 10 10 9 8 9 10 11 11 11 12 12 12 11 10 7 6 6 5 4 4 4 6 6 6 6
2 8 12 9 8 8 9 10 12 12 7 1 0 1 3 4 7 10 12 11 11 9 8 9 9 10 11 12 12 11 11 11 10 8 6 5 5 4 4 4 5 6 6 6
10 9 7 10 10 10 12 10 9 8 5 4 3 4 3 2 1 4 7 9 11 13 13 11 11 10 11 12 12 12 11 11 9 9 6 5 4 3 3 3 3 4 6 6
8 11 11 10 11 10 12 13 9 6 2 3 2 1 6 3 1 3 5 7 8 10 10 10 10 10 11 11 10 10 10 10 9 10 9 10 7 6 5 4 4 4 5 6
8 7 10 13 15 12 12 12 6 3 1 2 3 2 6 3 2 3 6 9 9 10 11 11 10 10 10 10 10 10 10 9 9 9 11 10 7 5 4 4 6 5 4 5
10 9 6 10 11 10 8 2 4 6 6 2 4 2 5 4 5 3 3 7 9 10 10 9 8 7 8 9 9 10 10 10 9 10 10 10 9 8 8 7 6 5 3 3
8 11 9 7 8 8 3 4 4 5 5 5 4 2 7 7 5 4 5 6 8 10 10 10 9 8 8 9 10 9 10 9 9 9 9 9 9 9 10 8 7 6 4 3
6 9 8 7 9 8 5 10 9 5 5 5 3 3 6 6 2 2 5 6 8 9 9 10 10 9 9 10 10 10 10 9 9 9 8 8 8 7 6 7 6 7 5 4
7 8 7 8 7 9 5 5 10 8 3 1 3 3 5 2 1 3 5 7 8 9 10 10 9 9 9 9 10 11 10 8 9 9 8 7 8 7 7 7 6 5 4 5
9 5 8 5 1 4 9 8 6 6 5 2 3 3 5 4 4 5 6 7 7 8 8 8 8 8 8 8 8 9 10 9 8 8 8 8 7 7 7 6 7 6 6 5
9 6 7 4 1 4 2 3 5 5 6 7 3 6 6 8 7 7 7 8 9 9 9 8 8 8 8 8 8 9 9 8 7 8 7 7 7 7 6 6 7 6 6 6
7 7 5 7 4 2 4 4 7 5 3 5 5 7 4 5 5 5 6 7 8 9 8 8 8 8 8 8 8 9 9 9 8 8 7 7 6 7 6 6 7 7 7 7
7 7 2 6 7 6 4 2 4 6 5 3 4 5 3 1 3 4 6 7 8 8 8 7 7 7 8 8 8 8 8 9 8 8 8 7 7 7 7 7 7 7 7 6
6 6 7 8 6 1 1 2 3 6 4 2 4 4 3 0 2 2 4 6 6 7 8 8 7 7 8 8 8 9 8 8 8 8 8 7 7 8 7 7 7 7 7 7
6 5 3 3 1 2 2 2 2 2 5 6 4 4 5 4 4 4 6 8 7 6 7 7 8 7 8 8 7 8 9 8 8 8 8 8 7 7 6 6 6 6 7 7
5 4 3 3 4 4 3 3 2 2 1 3 4 1 2 2 3 3 5 9 9 7 6 6 6 7 8 9 9 8 8 8 8 8 8 7 7 7 7 7 6 6 5 5
3 4 4 1 3 5 2 2 2 3 3 2 3 2 2 5 5 4 4 6 6 7 7 7 6 6 7 7 8 9 8 7 8 7 7 6 6 7 7 7 6 6 5 5
5 4 4 3 4 1 6 2 6 8 7 5 4 3 4 6 5 4 4 5 5 5 5 4 5 5 5 5 6 7 7 7 8 7 7 6 6 6 5 5 6 5 4 4
6 7 4 4 3 2 4 2 2 5 4 4 5 4 4 5 6 6 5 5 5 5 5 4 3 4 5 5 6 7 7 7 7 7 6 7 7 6 6 6 5 4 4 4
5 6 6 4 4 4 4 4 1 8 2 2 4 3 3 3 3 0 2 4 5 6 4 4 4 5 5 5 6 7 7 7 6 6 6 6 6 6 6 6 5 4 5 5
4 3 4 4 3 3 3 5 3 4 4 1 2 2 3 2 3 4 4 5 5 6 6 5 5 5 4 5 7 8 7 6 5 6 6 6 6 7 7 6 5 6 6 7
4 3 3 4 3 5 4 3 3 4 2 2 3 3 5 6 7 7 7 6 7 7 7 7 7 6 5 5 9 9 8 6 8 9 8 7 7 6 7 8 7 7 7 8
2 4 4 4 4 2 2 3 1 2 3 2 3 4 8 8 7 8 7 7 8 8 7 7 8 9 8 7 9 11 8 7 9 10 10 9 9 8 8 8 8 7 6 6
2 2 4 3 3 3 5 4 4 3 3 3 4 6 8 9 8 8 8 7 7 8 8 8 9 10 9 8 9 9 8 8 11 11 10 9 10 10 9 7 6 6 6 7
1 2 3 3 2 3 4 4 4 5 5 5 6 6 8 10 9 9 8 8 7 8 8 8 9 10 10 9 10 9 8 10 12 11 10 9 9 9 10 9 8 7 6 6
1 2 4 4 5 4 2 1 3 5 5 6 8 8 7 8 10 10 9 7 8 8 8 9 9 9 9 10 10 8 8 9 11 10 8 7 7 7 8 10 10 14 12 14
Wind_Direction
226 167 223 226 212 215 246 273 281 281 285 301 236 206 207 189 167 157 159 162 164 168 165 158 157 156 151 153 157 160 159 161 158 155 156 154 158 161 159 161 157 155 152 147
259 245 233 229 235 244 256 268 276 288 294 345 108 259 223 182 182 173 165 167 166 160 156 160 161 161 163 164 164 163 166 168 167 163 160 152 150 157 161 158 158 158 154 155
211 237 228 227 242 251 262 251 253 266 308 9 70 356 315 288 193 160 154 161 165 166 166 167 167 169 167 170 172 172 172 169 165 156 143 133 122 120 135 152 163 166 158 156
241 245 251 251 247 237 259 256 252 269 336 319 70 246 284 275 266 175 163 164 167 166 163 166 166 169 173 174 171 167 169 166 163 158 157 156 160 165 175 167 164 164 160 160
238 230 225 237 243 236 238 251 246 255 122 7 359 125 285 326 283 229 186 175 172 168 166 167 171 174 171 168 169 166 166 164 164 166 164 163 165 166 154 153 157 162 162 163
249 263 239 232 249 245 241 277 10 43 67 1 274 170 270 250 231 236 191 174 167 164 163 163 164 159 162 166 172 167 168 170 171 169 168 169 168 164 158 163 166 163 159 164
278 276 264 257 272 282 245 98 27 355 11 259 261 179 246 253 224 203 196 180 165 162 161 162 162 163 164 171 173 169 170 173 174 172 173 174 171 168 169 170 169 163 163 172
225 270 251 227 208 214 208 144 158 193 217 264 300 223 257 274 239 194 174 161 161 163 164 165 169 169 170 174 172 167 170 170 170 170 173 173 170 168 170 172 168 172 174 178
199 247 260 241 214 175 186 187 173 145 171 204 280 286 303 324 50 108 130 145 161 166 167 166 167 169 170 169 170 170 170 169 172 172 171 168 168 169 171 170 166 169 172 174
180 249 284 281 266 213 177 167 106 120 151 221 276 251 229 224 198 162 156 160 162 158 159 162 165 169 172 170 168 169 169 171 173 171 174 173 171 173 172 168 170 172 174 171
170 193 285 341 206 217 172 138 126 133 151 153 205 263 229 198 188 177 172 163 161 161 162 161 164 166 169 164 163 165 168 166 169 171 169 165 169 171 171 175 177 175 176 174
171 153 237 261 265 180 137 158 139 147 211 160 163 260 274 181 179 169 167 161 159 157 159 161 162 161 160 162 165 168 171 172 176 171 163 164 165 167 172 179 180 177 178 179
146 128 142 330 344 13 63 92 132 134 124 144 158 259 303 98 122 160 161 156 156 149 151 156 160 162 165 167 166 168 175 177 174 168 166 166 168 173 179 182 181 177 175 174
117 107 149 186 213 214 47 24 95 108 127 178 194 213 297 299 145 145 138 145 145 147 150 157 168 170 168 168 169 169 173 174 171 169 171 174 179 181 183 180 178 177 173 172
86 104 125 149 148 107 75 33 51 104 169 168 187 176 212 205 179 155 142 141 137 144 152 161 171 173 170 169 170 173 174 172 170 169 177 185 181 177 177 175 175 174 176 177
62 102 81 39 36 53 34 6 38 59 116 141 128 197 211 157 124 115 136 141 147 159 161 159 162 167 174 175 174 172 175 175 170 174 182 183 175 174 177 178 174 173 172 166
62 100 93 24 7 46 342 320 76 69 35 113 140 223 129 107 117 132 129 131 143 155 155 161 166 172 179 179 172 172 172 164 164 172 175 173 173 177 179 177 168 171 172 161
118 100 113 107 62 190 246 295 96 92 54 53 84 79 108 123 118 99 103 121 127 124 134 153 157 160 165 163 160 159 155 158 161 165 169 168 166 170 167 162 166 173 164 161
130 127 115 117 138 262 298 342 88 105 54 30 78 78 90 107 78 55 53 82 101 114 124 136 147 147 141 150 156 151 154 156 159 166 169 170 168 164 161 160 164 157 142 139
73 99 113 128 148 210 244 306 13 102 83 344 76 102 114 87 87 98 57 77 84 86 90 100 115 124 126 140 145 142 147 146 154 160 158 154 151 149 150 151 144 133 130 127
60 66 124 146 162 238 281 311 38 119 207 279 84 116 123 114 153 141 102 79 78 79 76 78 84 97 114 127 126 123 122 128 132 123 117 118 124 125 125 120 113 113 111 106
151 146 163 143 159 234 309 43 105 182 179 101 91 111 112 113 116 112 102 89 79 72 69 76 84 78 76 96 109 105 102 102 101 100 97 95 96 104 110 107 103 104 107 103
126 169 166 162 182 203 45 97 114 133 117 119 132 131 123 117 117 110 98 92 86 81 75 72 81 81 74 78 98 103 99 99 99 95 92 90 85 80 86 97 102 100 97 100
356 59 96 84 84 69 53 51 38 57 99 115 128 129 127 124 122 113 104 97 89 84 81 79 80 82 79 77 82 90 94 97 96 96 94 92 90 83 76 75 80 89 93 98
247 68 87 98 127 76 35 32 40 53 73 89 96 108 120 120 118 115 108 104 99 90 83 81 82 84 83 82 80 79 86 94 93 93 92 90 89 92 85 76 66 75 69 93
251 154 150 184 191 155 167 30 68 82 84 99 103 97 104 118 120 114 105 99 99 95 91 87 82 82 81 83 83 78 81 95 100 97 94 94 94 93 94 94 79 60 75 78